Volver al catálogo

STARLINK-37961

ActivoComunicacionesSSO
NORAD 69691·PAYLOAD·🇺🇸 United States

Lanzado Jun 25, 2026 desde Vandenberg Space Force Base

Loading…

Próximos Pases (próximas 24 horas)

TLE

ActualizadoSource: CelesTrak SupGP

Época: Sep 15, 2026, 02:55 UTC

1 69691C 26145Q   26258.12201389 -.00018326  00000+0 -56879-3 0  2585
2 69691  97.2846 104.8865 0001875  92.4983 156.9704 15.33452024    19

Sigue STARLINK-37961 en tiempo real con AllMySat

Download on the App Store